Regional Weather Roundup
Issued by NWS

Home | Current Version | Previous Version | Text Only | Print | Product List | Glossary On
Versions: 1 2 3 4 5 6 7 8 9 10 11 12 13 14 15 16 17 18 19 20 21 22 23 24 25 26 27
000
ASUS46 KSEW 280010
RWRWA

WASHINGTON REGIONAL WEATHER ROUNDUP
NATIONAL WEATHER SERVICE SEATTLE WA
500 PM PDT WED JUL 27 2016

NOTE:"FAIR" INDICATES FEW OR NO CLOUDS BELOW 12,000 FEET WITH NO
SIGNIFICANT WEATHER AND/OR OBSTRUCTIONS TO VISIBILITY.

WAZ505-507>509-280100-
SEATTLE, TACOMA, EVERETT, AND VICINITY

CITY           SKY/WX    TMP DP  RH WIND       PRES   REMARKS
EVERETT        SUNNY     79  58  48 N7        30.10F
6HR MIN TEMP:  67; 6HR MAX TEMP:  79;

BOEING FIELD   MOSUNNY   83  55  38 NW8G17    30.07F
6HR MIN TEMP:  72; 6HR MAX TEMP:  83;

RENTON         SUNNY     83  59  44 NW9       30.07F
6HR MIN TEMP:  72; 6HR MAX TEMP:  83;

SEATAC AIRPORT MOSUNNY   84  57  39 N16       30.10F
6HR MIN TEMP:  70; 6HR MAX TEMP:  84;

JBLM-MCCHORD   SUNNY     84  61  44 NW8       30.08F
6HR MIN TEMP:  70; 6HR MAX TEMP:  85; 6HR PCP: TRACE;

PUYALLUP       FAIR      84  57  39 VRB3G12   30.10S
BREMERTON      SUNNY     82  59  44 N10       30.11F
6HR MIN TEMP:  72; 6HR MAX TEMP:  84;

JBLM-FT LEWIS  SUNNY     84  62  47 W9        30.08F
6HR MIN TEMP:  67; 6HR MAX TEMP:  84; 6HR PCP: TRACE;

TACOMA NARROWS SUNNY     79  58  48 E6        30.08F
6HR MIN TEMP:  64; 6HR MAX TEMP:  79;

$$

WAZ001-503-506-510-514-515-280100-
NORTH INTERIOR

CITY           SKY/WX    TMP DP  RH WIND       PRES   REMARKS
BELLINGHAM     SUNNY     77  58  51 W8        30.08F
6HR MIN TEMP:  69; 6HR MAX TEMP:  79;

FRIDAY HARBOR  SUNNY     77  58  51 E6        30.09F
6HR MIN TEMP:  67; 6HR MAX TEMP:  79;

EASTSOUND      SUNNY     73  59  60 NW5       30.07F
PORT ANGELES   SUNNY     69  54  58 NW10      30.12S
6HR MIN TEMP:  68; 6HR MAX TEMP:  74;

EDIZ HOOK      FAIR      60  53  76 W16G23    30.11S
6HR MIN TEMP:  58; 6HR MAX TEMP:  61;

PORT TOWNSEND  FAIR      77  61  57 SW6       30.09S
NAS WHIDBEY    MOSUNNY   65  53  65 W7        30.13F
6HR MIN TEMP:  63; 6HR MAX TEMP:  70;

ARLINGTON      SUNNY     81  59  47 N5        30.08F
6HR MIN TEMP:  68; 6HR MAX TEMP:  81;

BURLINGTON     SUNNY     79  59  50 NW7       30.08S
$$

WAZ020-022-039-040-504-511-512-280100-
SOUTHWEST INTERIOR

CITY           SKY/WX    TMP DP  RH WIND       PRES   REMARKS
SHELTON        SUNNY     86  58  38 S8        30.05F
6HR MIN TEMP:  73; 6HR MAX TEMP:  87;

OLYMPIA        SUNNY     86  56  35 NE7       30.07F
6HR MIN TEMP:  65; 6HR MAX TEMP:  86;

CHEHALIS       FAIR      88  63  42 N7        30.06F
KELSO          SUNNY     84  65  52 W15       30.05S
6HR MIN TEMP:  64; 6HR MAX TEMP:  87;

VANCOUVER      SUNNY     87  57  35 NW14G24   30.02F
6HR MIN TEMP:  67; 6HR MAX TEMP:  87;

SCAPPOOSE, OR  SUNNY     88  57  34 NW12      30.02S
6HR MIN TEMP:  68; 6HR MAX TEMP:  88;

PORTLAND, OR   MOSUNNY   88  56  33 NW14      30.02F
6HR MIN TEMP:  67; 6HR MAX TEMP:  88;

$$

WAZ021-516-517-280100-
WASHINGTON COAST

CITY           SKY/WX    TMP DP  RH WIND       PRES   REMARKS
FORKS          MOSUNNY   68  59  73 NW6       30.14S
6HR MIN TEMP:  63; 6HR MAX TEMP:  69;

HOQUIAM        MOSUNNY   63  58  83 SW13      30.13F HAZE
6HR MIN TEMP:  59; 6HR MAX TEMP:  66;

ASTORIA, OR    PTSUNNY   65  57  75 W12       30.14R
6HR MIN TEMP:  63; 6HR MAX TEMP:  71;

$$

WAZ019-023-024-040-518-519-280100-
CASCADE MOUNTAINS AND COLUMBIA GORGE

CITY           SKY/WX    TMP DP  RH WIND       PRES   REMARKS
STAMPEDE PASS  SUNNY     72  53  51 VRB7      30.21S
6HR MIN TEMP:  65; 6HR MAX TEMP:  74;

TROUTDALE, OR  SUNNY     86  60  41 VRB6      30.01F
6HR MIN TEMP:  65; 6HR MAX TEMP:  86;

THE DALLES, OR SUNNY     95  54  25 NW15      29.91F HX  93
6HR MIN TEMP:  81; 6HR MAX TEMP:  97;

$$

WAZ026-027-041>044-520-521-280100-
EAST SLOPES

CITY           SKY/WX    TMP DP  RH WIND       PRES   REMARKS
OMAK           SUNNY     94  43  17 SE5       29.97F HX  90
6HR MIN TEMP:  82; 6HR MAX TEMP:  95;

WENATCHEE      SUNNY     95  51  22 E6        29.96F HX  92
6HR MIN TEMP:  81; 6HR MAX TEMP:  95;

ELLENSBURG     SUNNY     95  51  22 W7        30.01S HX  92
6HR MIN TEMP:  83; 6HR MAX TEMP:  95;

YAKIMA         SUNNY     96  49  20 VRB3      29.96F HX  93
6HR MIN TEMP:  87; 6HR MAX TEMP:  97;

$$

WAZ028-034-035-280100-
COLUMBIA BASIN

CITY           SKY/WX    TMP DP  RH WIND       PRES   REMARKS
EPHRATA        SUNNY     96  51  21 S10G17    29.97S HX  93
6HR MIN TEMP:  86; 6HR MAX TEMP:  96;

MOSES LAKE     SUNNY     95  51  22 SW8       29.98S HX  92
6HR MIN TEMP:  86; 6HR MAX TEMP:  96;

PASCO          SUNNY     97  52  21 VRB6      29.92F HX  94
6HR MIN TEMP:  85; 6HR MAX TEMP:  98;

HERMISTON, OR  SUNNY     98  56  24 MISG      29.92F HX  96
6HR MIN TEMP:  86; 6HR MAX TEMP:  99;

$$

WAZ036>038-280100-
NORTHEAST WASHINGTON

CITY           SKY/WX    TMP DP  RH WIND       PRES   REMARKS
SPOKANE GEIGER MOSUNNY   92  44  19 W7        30.02F
6HR MIN TEMP:  80; 6HR MAX TEMP:  93;

SPOKANE FELTS  MOSUNNY   92  49  22 VRB7      30.00F
6HR MIN TEMP:  79; 6HR MAX TEMP:  94;

FAIRCHILD AFB  SUNNY     91  45  20 VRB3      30.03F
6HR MIN TEMP:  80; 6HR MAX TEMP:  91;

COEURDALENE,ID MOSUNNY   90  52  27 S7        29.98F
6HR MIN TEMP:  79; 6HR MAX TEMP:  91;

DEER PARK      SUNNY     90  44  20 SW3       30.02F
6HR MIN TEMP:  79; 6HR MAX TEMP:  91;

$$

WAZ029>033-280100-
SOUTHEAST WASHINGTON

CITY           SKY/WX    TMP DP  RH WIND       PRES   REMARKS
PULLMAN        PTSUNNY   89  49  25 NW6       30.06S
6HR MIN TEMP:  81; 6HR MAX TEMP:  91;

LEWISTON, ID   MOSUNNY   98  48  18 N8        29.94F HX  94
6HR MIN TEMP:  86; 6HR MAX TEMP:  99;

WALLA WALLA    MOSUNNY   94  52  24 VRB5      29.95F HX  91
6HR MIN TEMP:  81; 6HR MAX TEMP:  95;

PENDLETON, OR  SUNNY     95  48  20 NW8       29.97S HX  91
6HR MIN TEMP:  81; 6HR MAX TEMP:  96;

$$




USA.gov is the U.S. government's official web portal to all federal, state and local government web resources and services.